| time (UTC) | temp F | wind direction | speed MPH | gust MPH | rain 1hr in | rain 24hr in | rain mn in | humidity % | barometer mb |
| 20260503212135 | 74 | 280 | 1.0 | 1.0 | 0.00 | 0.00 | 0.00 | 37 | 1016.8 |
| 20260503211633 | 73 | 257 | 1.0 | 1.0 | 0.00 | 0.00 | 0.00 | 38 | 1016.7 |
| 20260503211127 | 72 | 317 | 0.0 | 0.0 | 0.00 | 0.00 | 0.00 | 39 | 1016.7 |
| 20260503210624 | 72 | 252 | 1.0 | 1.0 | 0.00 | 0.00 | 0.00 | 37 | 1016.8 |
| 20260503210121 | 73 | 145 | 6.0 | 9.0 | 0.00 | 0.00 | 0.00 | 38 | 1017.0 |
| 20260503205617 | 73 | 326 | 1.0 | 2.0 | 0.00 | 0.00 | 0.00 | 35 | 1016.8 |
| 20260503205113 | 73 | 182 | 3.0 | 5.0 | 0.00 | 0.00 | 0.00 | 35 | 1016.7 |
| 20260503204610 | 72 | 269 | 2.0 | 2.0 | 0.00 | 0.00 | 0.00 | 37 | 1016.9 |
| 20260503204108 | 72 | 309 | 1.0 | 1.0 | 0.00 | 0.00 | 0.00 | 37 | 1016.9 |
| 20260503203605 | 72 | 344 | 7.0 | 8.0 | 0.00 | 0.00 | 0.00 | 36 | 1016.8 |
| 20260503203102 | 73 | 18 | 3.0 | 5.0 | 0.00 | 0.00 | 0.00 | 36 | 1017.1 |
| 20260503202559 | 73 | 271 | 1.0 | 2.0 | 0.00 | 0.00 | 0.00 | 39 | 1017.0 |
| 20260503202056 | 73 | 175 | 2.0 | 2.0 | 0.00 | 0.00 | 0.00 | 38 | 1017.0 |
| 20260503201555 | 73 | 165 | 1.0 | 2.0 | 0.00 | 0.00 | 0.00 | 40 | 1017.0 |
| 20260503201051 | 72 | 48 | 1.0 | 1.0 | 0.00 | 0.00 | 0.00 | 38 | 1017.2 |
| 20260503200547 | 72 | 157 | 4.0 | 6.0 | 0.00 | 0.00 | 0.00 | 39 | 1017.4 |
| 20260503200044 | 72 | 253 | 1.0 | 1.0 | 0.00 | 0.00 | 0.00 | 37 | 1017.3 |
| 20260503195541 | 72 | 138 | 3.0 | 6.0 | 0.00 | 0.00 | 0.00 | 35 | 1017.5 |
| 20260503195038 | 72 | 231 | 4.0 | 5.0 | 0.00 | 0.00 | 0.00 | 37 | 1017.5 |
| 20260503194535 | 72 | 290 | 1.0 | 2.0 | 0.00 | 0.00 | 0.00 | 40 | 1017.6 |
| 20260503194036 | 72 | 341 | 5.0 | 6.0 | 0.00 | 0.00 | 0.00 | 38 | 1017.7 |
| 20260503193533 | 71 | 222 | 1.0 | 1.0 | 0.00 | 0.00 | 0.00 | 40 | 1017.6 |
| 20260503193028 | 71 | 160 | 4.0 | 6.0 | 0.00 | 0.00 | 0.00 | 38 | 1017.8 |
| 20260503192524 | 71 | 134 | 2.0 | 3.0 | 0.00 | 0.00 | 0.00 | 37 | 1018.0 |
| 20260503192020 | 72 | 126 | 3.0 | 3.0 | 0.00 | 0.00 | 0.00 | 37 | 1018.2 |
| 20260503191517 | 72 | 329 | 4.0 | 6.0 | 0.00 | 0.00 | 0.00 | 39 | 1018.1 |
| 20260503191014 | 71 | 313 | 3.0 | 3.0 | 0.00 | 0.00 | 0.00 | 41 | 1018.2 |
| 20260503190511 | 71 | 169 | 2.0 | 2.0 | 0.00 | 0.00 | 0.00 | 43 | 1018.5 |
| 20260503190008 | 70 | 142 | 5.0 | 6.0 | 0.00 | 0.00 | 0.00 | 40 | 1018.5 |
| 20260503185503 | 71 | 180 | 5.0 | 6.0 | 0.00 | 0.00 | 0.00 | 41 | 1018.6 |
| 20260503184958 | 71 | 119 | 3.0 | 3.0 | 0.00 | 0.00 | 0.00 | 41 | 1018.4 |
| 20260503184455 | 70 | 161 | 1.0 | 2.0 | 0.00 | 0.00 | 0.00 | 44 | 1018.6 |
| 20260503183951 | 71 | 150 | 6.0 | 9.0 | 0.00 | 0.00 | 0.00 | 42 | 1018.8 |
| 20260503183448 | 70 | 11 | 0.0 | 0.0 | 0.00 | 0.00 | 0.00 | 46 | 1018.7 |
| 20260503182945 | 70 | 127 | 6.0 | 7.0 | 0.00 | 0.00 | 0.00 | 45 | 1018.7 |
| 20260503182444 | 69 | 8 | 0.0 | 1.0 | 0.00 | 0.00 | 0.00 | 42 | 1018.9 |
| 20260503181940 | 70 | 114 | 5.0 | 6.0 | 0.00 | 0.00 | 0.00 | 42 | 1019.0 |
| 20260503181437 | 70 | 352 | 2.0 | 5.0 | 0.00 | 0.00 | 0.00 | 43 | 1019.1 |
| 20260503180933 | 70 | 356 | 5.0 | 6.0 | 0.00 | 0.00 | 0.00 | 44 | 1019.0 |
| 20260503180432 | 69 | 261 | 3.0 | 3.0 | 0.00 | 0.00 | 0.00 | 44 | 1019.3 |
| 20260503175929 | 69 | 341 | 8.0 | 10.0 | 0.00 | 0.00 | 0.00 | 46 | 1019.0 |
| 20260503175427 | 69 | 356 | 4.0 | 5.0 | 0.00 | 0.00 | 0.00 | 47 | 1019.2 |
| 20260503174922 | 68 | 337 | 1.0 | 1.0 | 0.00 | 0.00 | 0.00 | 45 | 1019.2 |
| 20260503174421 | 70 | 156 | 4.0 | 6.0 | 0.00 | 0.00 | 0.00 | 45 | 1019.5 |
| 20260503173921 | 70 | 144 | 1.0 | 1.0 | 0.00 | 0.00 | 0.00 | 45 | 1019.4 |
| 20260503173417 | 69 | 152 | 4.0 | 5.0 | 0.00 | 0.00 | 0.00 | 47 | 1019.3 |
| 20260503172914 | 69 | 82 | 5.0 | 6.0 | 0.00 | 0.00 | 0.00 | 44 | 1019.0 |
| 20260503172412 | 69 | 168 | 2.0 | 3.0 | 0.00 | 0.00 | 0.00 | 49 | 1019.5 |
| 20260503171907 | 69 | 321 | 3.0 | 3.0 | 0.00 | 0.00 | 0.00 | 49 | 1019.4 |
| 20260503171404 | 69 | 4 | 1.0 | 2.0 | 0.00 | 0.00 | 0.00 | 49 | 1019.4 |
| 20260503170902 | 69 | 3 | 3.0 | 5.0 | 0.00 | 0.00 | 0.00 | 46 | 1019.5 |
| 20260503170358 | 68 | 218 | 1.0 | 1.0 | 0.00 | 0.00 | 0.00 | 49 | 1019.5 |
| 20260503150750 | 63 | 339 | 0.0 | 1.0 | 0.00 | 0.00 | 0.00 | 75 | 1020.5 |
| 20260503150246 | 63 | 184 | 3.0 | 3.0 | 0.00 | 0.00 | 0.00 | 76 | 1020.3 |
| 20260503140211 | 56 | 329 | 0.0 | 1.0 | 0.00 | 0.00 | 0.00 | 99 | 1020.3 |
| 20260503131140 | 51 | 306 | 2.0 | 2.0 | 0.00 | 0.00 | 0.00 | 99 | 1020.0 |
| 20260503130638 | 51 | 256 | 1.0 | 2.0 | 0.00 | 0.00 | 0.00 | 99 | 1019.9 |
| 20260503130135 | 51 | 21 | 0.0 | 0.0 | 0.00 | 0.00 | 0.00 | 99 | 1020.0 |
| 20260503110528 | 45 | 335 | 0.0 | 0.0 | 0.00 | 0.00 | 0.00 | 99 | 1018.9 |
| 20260503090415 | 44 | 322 | 0.0 | 0.0 | 0.00 | 0.00 | 0.00 | 99 | 1017.6 |
| 20260503081341 | 45 | 319 | 0.0 | 0.0 | 0.00 | 0.00 | 0.00 | 99 | 1017.3 |
| 20260503080838 | 45 | 320 | 0.0 | 0.0 | 0.00 | 0.00 | 0.00 | 99 | 1017.3 |
| 20260503080335 | 46 | 319 | 0.0 | 0.0 | 0.00 | 0.00 | 0.00 | 99 | 1017.1 |
| 20260503072805 | 47 | 323 | 0.0 | 0.0 | 0.00 | 0.00 | 0.00 | 99 | 1016.9 |
| 20260503072305 | 47 | 326 | 0.0 | 0.0 | 0.00 | 0.00 | 0.00 | 99 | 1017.0 |
| 20260503071758 | 47 | 329 | 0.0 | 0.0 | 0.00 | 0.00 | 0.00 | 99 | 1016.9 |
| 20260503071256 | 47 | 329 | 0.0 | 0.0 | 0.00 | 0.00 | 0.00 | 99 | 1016.8 |
| 20260503070752 | 48 | 341 | 0.0 | 0.0 | 0.00 | 0.00 | 0.00 | 99 | 1016.6 |
| 20260503070250 | 48 | 338 | 0.0 | 0.0 | 0.00 | 0.00 | 0.00 | 99 | 1016.6 |
| 20260503060209 | 48 | 324 | 0.0 | 0.0 | 0.00 | 0.00 | 0.00 | 99 | 1016.4 |
| 20260503054656 | 49 | 333 | 0.0 | 0.0 | 0.00 | 0.00 | 0.00 | 99 | 1016.4 |
| 20260503054153 | 49 | 327 | 0.0 | 0.0 | 0.00 | 0.00 | 0.00 | 99 | 1016.4 |
| 20260503053651 | 49 | 314 | 0.0 | 0.0 | 0.00 | 0.00 | 0.00 | 99 | 1016.4 |
| 20260503053150 | 49 | 317 | 0.0 | 0.0 | 0.00 | 0.00 | 0.00 | 99 | 1016.3 |
| 20260503052646 | 49 | 327 | 0.0 | 0.0 | 0.00 | 0.00 | 0.00 | 99 | 1016.4 |
| 20260503052142 | 49 | 322 | 0.0 | 0.0 | 0.00 | 0.00 | 0.00 | 99 | 1016.5 |
| 20260503051637 | 49 | 352 | 0.0 | 0.0 | 0.00 | 0.00 | 0.00 | 99 | 1016.2 |
| 20260503051135 | 49 | 329 | 0.0 | 0.0 | 0.00 | 0.00 | 0.00 | 99 | 1016.4 |
| 20260503050632 | 49 | 316 | 0.0 | 0.0 | 0.00 | 0.00 | 0.00 | 99 | 1016.4 |
| 20260503050129 | 49 | 319 | 0.0 | 0.0 | 0.00 | 0.00 | 0.00 | 99 | 1016.3 |
| 20260503045626 | 49 | 323 | 0.0 | 0.0 | 0.00 | 0.00 | 0.00 | 99 | 1016.3 |
| 20260503045123 | 50 | 321 | 0.0 | 0.0 | 0.00 | 0.00 | 0.00 | 99 | 1016.4 |
| 20260503044620 | 50 | 325 | 0.0 | 0.0 | 0.00 | 0.00 | 0.00 | 99 | 1016.3 |
| 20260503044117 | 50 | 346 | 0.0 | 0.0 | 0.00 | 0.00 | 0.00 | 99 | 1016.2 |
| 20260503043614 | 50 | 321 | 0.0 | 0.0 | 0.00 | 0.00 | 0.00 | 99 | 1016.3 |
| 20260503043110 | 51 | 347 | 0.0 | 0.0 | 0.00 | 0.00 | 0.00 | 99 | 1016.2 |
| 20260503042607 | 51 | 338 | 0.0 | 0.0 | 0.00 | 0.00 | 0.00 | 99 | 1016.1 |
| 20260503042103 | 51 | 341 | 1.0 | 1.0 | 0.00 | 0.00 | 0.00 | 99 | 1016.0 |
| 20260503041600 | 51 | 341 | 0.0 | 0.0 | 0.00 | 0.00 | 0.00 | 99 | 1016.1 |
| 20260503041058 | 51 | 332 | 0.0 | 0.0 | 0.00 | 0.00 | 0.00 | 99 | 1016.0 |
| 20260503040555 | 51 | 329 | 0.0 | 0.0 | 0.00 | 0.00 | 0.00 | 99 | 1015.8 |
| 20260503040052 | 52 | 308 | 0.0 | 0.0 | 0.00 | 0.00 | 0.00 | 99 | 1015.8 |
| 20260503035549 | 52 | 14 | 0.0 | 0.0 | 0.00 | 0.86 | 0.86 | 99 | 1015.7 |
| 20260503035047 | 52 | 262 | 0.0 | 0.0 | 0.00 | 0.86 | 0.86 | 99 | 1015.8 |
| 20260503034543 | 52 | 163 | 0.0 | 0.0 | 0.00 | 0.86 | 0.86 | 99 | 1015.7 |
| 20260503034041 | 51 | 171 | 0.0 | 0.0 | 0.00 | 0.86 | 0.86 | 99 | 1016.1 |
| 20260503033538 | 51 | 216 | 0.0 | 0.0 | 0.00 | 0.86 | 0.86 | 99 | 1016.1 |
| 20260503033036 | 51 | 260 | 0.0 | 0.0 | 0.00 | 0.86 | 0.86 | 99 | 1016.3 |
| 20260503032534 | 51 | 270 | 0.0 | 0.0 | 0.00 | 0.86 | 0.86 | 99 | 1016.3 |
| 20260503032031 | 51 | 309 | 0.0 | 0.0 | 0.00 | 0.86 | 0.86 | 99 | 1016.2 |
| 20260503031529 | 51 | 251 | 0.0 | 0.0 | 0.00 | 0.86 | 0.86 | 99 | 1016.2 |
| 20260503031026 | 51 | 302 | 0.0 | 0.0 | 0.00 | 0.86 | 0.86 | 99 | 1016.3 |
| 20260503030522 | 52 | 49 | 0.0 | 1.0 | 0.00 | 0.86 | 0.86 | 99 | 1016.5 |
| 20260503030019 | 52 | 27 | 0.0 | 0.0 | 0.00 | 0.86 | 0.86 | 99 | 1016.2 |
| 20260503025516 | 52 | 3 | 0.0 | 0.0 | 0.00 | 0.86 | 0.86 | 99 | 1016.1 |
| 20260503025014 | 52 | 334 | 2.0 | 2.0 | 0.00 | 0.86 | 0.86 | 99 | 1015.9 |
| 20260503024510 | 52 | 310 | 0.0 | 0.0 | 0.00 | 0.86 | 0.86 | 99 | 1015.8 |
| 20260503024007 | 52 | 35 | 0.0 | 0.0 | 0.00 | 0.86 | 0.86 | 99 | 1015.7 |
| 20260503023504 | 52 | 345 | 3.0 | 3.0 | 0.00 | 0.86 | 0.86 | 99 | 1015.6 |
| 20260503023001 | 52 | 310 | 0.0 | 0.0 | 0.00 | 0.86 | 0.86 | 99 | 1015.3 |
| 20260503022456 | 51 | 337 | 0.0 | 0.0 | 0.00 | 0.86 | 0.86 | 99 | 1015.2 |
| 20260503021952 | 51 | 336 | 0.0 | 0.0 | 0.00 | 0.86 | 0.86 | 99 | 1015.0 |
| 20260503021448 | 51 | 335 | 0.0 | 0.0 | 0.00 | 0.86 | 0.86 | 99 | 1015.2 |
| 20260503020946 | 51 | 336 | 0.0 | 0.0 | 0.00 | 0.86 | 0.86 | 99 | 1014.7 |
| 20260503020443 | 51 | 335 | 0.0 | 0.0 | 0.00 | 0.86 | 0.86 | 99 | 1014.9 |
| 20260503015939 | 51 | 335 | 0.0 | 0.0 | 0.00 | 0.86 | 0.86 | 99 | 1015.2 |
| 20260503015436 | 51 | 335 | 0.0 | 0.0 | 0.00 | 0.86 | 0.86 | 99 | 1014.8 |
| 20260503014932 | 51 | 335 | 0.0 | 0.0 | 0.00 | 0.86 | 0.86 | 99 | 1014.7 |
| 20260503014430 | 51 | 335 | 0.0 | 0.0 | 0.00 | 0.86 | 0.86 | 99 | 1014.8 |
| 20260503013928 | 51 | 335 | 0.0 | 0.0 | 0.00 | 0.86 | 0.86 | 99 | 1014.4 |
| 20260503013425 | 51 | 335 | 0.0 | 0.0 | 0.00 | 0.86 | 0.86 | 99 | 1014.6 |
| 20260503012922 | 51 | 335 | 0.0 | 0.0 | 0.00 | 0.86 | 0.86 | 99 | 1014.5 |
| 20260503012420 | 50 | 335 | 0.0 | 0.0 | 0.00 | 0.86 | 0.86 | 99 | 1014.3 |
| 20260503011915 | 50 | 335 | 0.0 | 0.0 | 0.00 | 0.86 | 0.86 | 98 | 1014.3 |
| 20260503011407 | 50 | 335 | 0.0 | 0.0 | 0.00 | 0.86 | 0.86 | 98 | 1013.6 |
| 20260503010904 | 50 | 335 | 0.0 | 0.0 | 0.00 | 0.86 | 0.86 | 98 | 1014.1 |
| 20260503010400 | 50 | 335 | 0.0 | 0.0 | 0.00 | 0.86 | 0.86 | 98 | 1013.8 |
| 20260503005857 | 50 | 335 | 0.0 | 0.0 | 0.00 | 0.86 | 0.86 | 98 | 1013.9 |
| 20260503005355 | 51 | 335 | 0.0 | 0.0 | 0.00 | 0.86 | 0.86 | 97 | 1013.7 |
| 20260503004851 | 51 | 335 | 0.0 | 0.0 | 0.00 | 0.86 | 0.86 | 97 | 1013.9 |
| 20260503004348 | 51 | 335 | 0.0 | 0.0 | 0.00 | 0.86 | 0.86 | 97 | 1013.8 |
| 20260503003846 | 51 | 335 | 0.0 | 0.0 | 0.00 | 0.86 | 0.86 | 97 | 1013.6 |
| 20260503003342 | 52 | 336 | 0.0 | 0.0 | 0.00 | 0.86 | 0.86 | 96 | 1013.7 |
| 20260503002839 | 52 | 340 | 0.0 | 0.0 | 0.00 | 0.86 | 0.86 | 96 | 1013.5 |
| 20260503002338 | 52 | 322 | 0.0 | 0.0 | 0.00 | 0.86 | 0.86 | 95 | 1013.5 |
| 20260503001833 | 52 | 322 | 0.0 | 0.0 | 0.00 | 0.86 | 0.86 | 95 | 1013.4 |
| 20260503001329 | 52 | 322 | 0.0 | 0.0 | 0.00 | 0.86 | 0.86 | 94 | 1013.1 |
| 20260503000827 | 52 | 321 | 0.0 | 0.0 | 0.00 | 0.86 | 0.86 | 94 | 1013.5 |
| 20260503000325 | 53 | 319 | 0.0 | 0.0 | 0.00 | 0.86 | 0.86 | 94 | 1013.4 |
| 20260502235821 | 53 | 320 | 0.0 | 0.0 | 0.00 | 0.86 | 0.86 | 93 | 1013.3 |
| 20260502235319 | 54 | 319 | 0.0 | 0.0 | 0.00 | 0.86 | 0.86 | 92 | 1013.3 |
| 20260502234815 | 54 | 319 | 0.0 | 0.0 | 0.00 | 0.86 | 0.86 | 91 | 1013.0 |
| 20260502234312 | 55 | 316 | 0.0 | 0.0 | 0.00 | 0.86 | 0.86 | 90 | 1013.0 |
| 20260502233808 | 55 | 308 | 0.0 | 0.0 | 0.00 | 0.86 | 0.86 | 89 | 1012.9 |
| 20260502233305 | 56 | 317 | 0.0 | 0.0 | 0.00 | 0.86 | 0.86 | 87 | 1012.6 |
| 20260502232802 | 56 | 304 | 0.0 | 0.0 | 0.00 | 0.86 | 0.86 | 87 | 1012.8 |
| 20260502232258 | 56 | 284 | 0.0 | 1.0 | 0.00 | 0.86 | 0.86 | 86 | 1012.4 |
| 20260502231755 | 57 | 278 | 0.0 | 0.0 | 0.00 | 0.86 | 0.86 | 86 | 1012.4 |
| 20260502231253 | 57 | 236 | 1.0 | 1.0 | 0.00 | 0.86 | 0.86 | 84 | 1012.4 |
| 20260502230751 | 58 | 316 | 0.0 | 0.0 | 0.00 | 0.86 | 0.86 | 85 | 1012.2 |
| 20260502230249 | 59 | 231 | 1.0 | 2.0 | 0.00 | 0.86 | 0.86 | 82 | 1012.2 |
| 20260502225744 | 59 | 310 | 0.0 | 0.0 | 0.00 | 0.86 | 0.86 | 82 | 1012.4 |
| 20260502225236 | 60 | 278 | 1.0 | 1.0 | 0.00 | 0.86 | 0.86 | 80 | 1012.3 |
| 20260502224732 | 59 | 230 | 0.0 | 0.0 | 0.00 | 0.86 | 0.86 | 81 | 1012.8 |
| 20260502224229 | 59 | 240 | 1.0 | 1.0 | 0.00 | 0.86 | 0.86 | 83 | 1012.7 |
| 20260502223727 | 60 | 333 | 3.0 | 5.0 | 0.00 | 0.86 | 0.86 | 81 | 1012.6 |
| 20260502223224 | 60 | 232 | 3.0 | 5.0 | 0.00 | 0.86 | 0.86 | 81 | 1012.6 |
| 20260502222722 | 59 | 311 | 3.0 | 3.0 | 0.00 | 0.86 | 0.86 | 84 | 1012.6 |
| 20260502222218 | 59 | 239 | 4.0 | 5.0 | 0.00 | 0.86 | 0.86 | 87 | 1012.4 |
| 20260502221714 | 57 | 6 | 1.0 | 1.0 | 0.00 | 0.86 | 0.86 | 91 | 1012.4 |
| 20260502221211 | 57 | 319 | 2.0 | 2.0 | 0.00 | 0.86 | 0.86 | 91 | 1012.4 |
| 20260502220707 | 57 | 320 | 1.0 | 1.0 | 0.00 | 0.86 | 0.86 | 91 | 1012.3 |
| 20260502220204 | 57 | 342 | 0.0 | 0.0 | 0.00 | 0.86 | 0.86 | 92 | 1012.3 |
| 20260502215701 | 56 | 296 | 0.0 | 0.0 | 0.00 | 0.86 | 0.86 | 93 | 1012.3 |
| 20260502215157 | 56 | 324 | 0.0 | 0.0 | 0.00 | 0.86 | 0.86 | 94 | 1012.2 |
| 20260502214655 | 56 | 197 | 0.0 | 1.0 | 0.00 | 0.86 | 0.86 | 93 | 1012.3 |
| 20260502214152 | 56 | 325 | 0.0 | 0.0 | 0.00 | 0.86 | 0.86 | 93 | 1012.2 |
| 20260502213649 | 55 | 312 | 0.0 | 0.0 | 0.00 | 0.86 | 0.86 | 94 | 1011.9 |
| 20260502213146 | 55 | 277 | 0.0 | 0.0 | 0.00 | 0.86 | 0.86 | 94 | 1012.0 |
| 20260502212645 | 55 | 272 | 0.0 | 1.0 | 0.00 | 0.86 | 0.86 | 94 | 1012.1 |